Terminal Aerodrome Forecast
Issued by NWS Charleston, WV

Current Version | Previous Version | Graphics & Text | Print | Product List | Glossary On
Versions: 1 2 3 4 5 6 7 8 9 10 11 12 13 14 15 16 17 18 19 20 21 22 23 24 25 26 27 28 29 30 31 32 33 34
000
FTUS41 KRLX 211700 RRA
TAFBKW
TAF
KBKW 211742Z 2118/2218 30010G18KT P6SM BKN025
     FM212300 30009KT P6SM BKN030
     FM220400 31010KT P6SM OVC018
     FM220900 32011G18KT P6SM OVC015=

USA.gov is the U.S. government's official web portal to all federal, state and local government web resources and services.